Wind_Speed
9 10 10 8 7 6 7 7 7 8 7 7 6 6 5 5 5 5 5 5 5 6 6 6 7 7 7 6 6 5 5 4 4 4 3 3 3 3 3 4 4 5 5 6 7 8 9 9 9 11 12 13 15 17 19 19 18 18 17 17 17 17 17 18 19 20 19 20 22 23 23 24 25 26 26 26 27 27 27 26 25 25 24 24 24
7 8 8 7 6 5 5 6 5 6 5 5 5 4 4 4 3 3 3 3 3 3 3 3 4 4 4 4 4 4 4 3 3 3 3 3 3 3 3 3 4 4 5 6 6 7 7 8 8 8 9 11 12 14 17 19 20 20 20 19 19 19 19 19 20 21 21 20 20 22 24 24 25 27 28 29 29 29 29 28 27 26 25 25 26
6 6 5 5 4 3 4 4 4 3 3 3 3 3 3 3 3 3 3 3 3 2 2 2 1 1 1 1 1 1 1 1 1 1 1 2 2 2 3 3 3 4 4 5 6 7 7 7 8 7 8 9 10 11 14 16 19 20 21 21 21 21 21 21 21 22 23 23 21 21 23 25 26 28 30 31 31 31 31 30 29 28 27 26 27
6 5 4 4 3 2 2 2 1 1 1 1 1 2 2 2 2 3 3 4 4 4 4 4 4 3 3 3 2 2 2 2 2 2 2 2 2 3 3 3 4 4 4 5 5 6 7 7 8 8 8 8 9 10 12 13 15 17 19 20 21 23 24 24 24 23 23 24 24 23 22 23 25 28 30 32 33 34 34 34 31 29 28 28 27
3 4 4 4 3 2 2 1 1 1 1 1 2 2 2 3 3 3 3 4 4 4 5 5 6 5 5 5 5 5 4 4 4 5 5 4 5 6 6 6 6 6 6 6 6 7 7 8 9 9 9 9 9 10 11 12 14 15 16 17 19 20 23 24 26 26 25 25 26 25 24 23 24 25 28 31 34 36 37 37 35 31 30 30 29
3 4 4 4 3 3 4 4 4 3 3 3 3 3 4 4 4 4 4 4 5 5 6 6 7 6 6 7 7 7 7 7 7 7 7 7 7 8 8 8 9 9 10 9 9 9 9 9 9 10 10 10 10 10 11 12 13 15 16 16 17 18 19 21 24 27 28 27 27 27 26 25 25 24 25 28 32 35 38 38 38 35 32 31 31
4 4 4 3 4 5 6 6 7 7 6 6 5 5 5 6 5 5 5 6 6 6 7 8 8 8 8 8 9 9 9 9 9 9 9 9 10 10 11 11 11 12 12 12 12 12 12 12 12 12 12 12 12 12 12 13 14 14 16 17 17 18 18 18 20 24 28 30 30 29 29 28 27 25 25 27 30 33 37 38 39 38 35 33 33
6 6 5 5 6 6 7 8 9 9 9 9 8 8 7 8 8 7 7 7 8 8 8 9 9 10 10 11 11 11 11 11 11 12 12 12 12 12 13 13 13 13 14 14 14 14 14 15 15 15 15 15 14 14 15 15 15 15 16 17 18 19 19 19 18 20 24 28 30 31 31 30 29 27 26 27 28 31 35 37 39 39 38 35 34
7 7 7 8 8 9 9 9 9 10 10 11 11 10 10 10 10 10 9 9 9 10 10 10 11 11 12 12 13 13 13 14 14 14 14 14 14 14 14 15 15 15 16 16 16 16 16 16 17 17 18 18 18 18 18 18 18 17 18 18 19 20 20 20 20 21 22 24 27 30 31 32 31 29 28 28 28 29 32 35 38 39 39 38 37
9 9 9 9 10 10 10 11 10 10 10 11 11 12 12 12 12 12 12 11 11 11 12 12 12 12 13 13 14 14 15 15 16 16 16 16 16 16 16 16 16 17 17 18 18 18 18 18 18 19 19 20 21 22 21 21 21 20 20 20 21 21 21 21 22 23 23 22 24 26 29 31 33 32 31 31 30 29 30 33 36 38 40 40 39
11 11 11 11 11 11 11 11 11 11 11 11 11 12 13 14 14 14 14 14 13 13 13 14 14 14 14 14 14 15 15 16 16 17 17 18 18 18 18 18 19 19 19 19 20 20 20 20 20 20 21 21 22 23 24 24 24 24 23 23 23 24 23 22 23 24 24 23 24 25 26 28 32 33 33 34 33 31 31 31 34 37 39 41 42
13 13 13 13 13 12 12 12 12 12 12 12 12 13 14 14 15 15 15 15 15 16 16 16 16 16 16 16 16 16 16 16 17 17 18 18 19 19 20 20 21 21 21 21 22 22 22 22 22 22 23 23 24 24 25 25 26 26 26 26 26 26 26 25 25 26 25 24 25 26 26 26 29 32 34 36 35 34 33 32 33 34 36 38 41
15 14 14 14 14 14 13 13 13 13 14 15 15 15 15 16 16 16 17 17 17 17 17 17 17 17 17 17 18 18 18 18 18 18 18 19 19 19 20 21 21 22 23 23 24 24 24 24 24 24 25 25 26 27 27 27 27 28 28 28 28 28 29 29 28 28 27 26 25 26 27 27 27 29 33 37 38 37 36 35 34 35 35 36 38
17 16 16 15 15 15 15 15 14 14 15 16 17 17 17 17 17 18 18 18 18 18 18 18 18 18 18 19 19 19 19 20 20 20 20 20 20 20 20 21 21 22 23 24 25 26 26 26 26 26 27 27 28 29 29 30 30 30 30 30 30 31 31 31 32 31 30 29 28 27 28 29 29 28 30 35 39 40 38 37 36 36 36 36 37
20 19 17 17 16 16 17 17 16 16 16 17 18 19 19 19 19 19 19 19 19 19 19 19 19 19 19 19 20 20 20 21 21 21 21 21 21 21 21 22 22 22 23 24 25 26 27 27 28 28 28 29 30 30 31 32 33 33 33 33 33 33 33 33 34 34 34 33 31 30 29 30 30 30 30 31 36 40 41 39 38 38 38 37 37
22 20 19 17 17 17 18 18 18 18 18 19 20 20 21 20 20 20 20 20 20 20 20 20 20 20 21 21 21 21 21 22 22 22 22 22 22 23 23 23 24 24 25 25 26 26 27 28 29 29 30 30 31 32 32 33 35 35 36 36 36 36 36 36 36 36 37 36 35 34 33 32 32 32 32 31 33 36 40 41 40 40 40 39 38
22 21 20 19 18 18 19 19 20 21 21 21 21 22 22 22 21 21 21 21 21 21 21 21 21 21 22 22 23 23 22 23 23 23 23 23 24 24 24 25 26 26 27 28 28 29 29 30 30 31 31 32 33 33 34 35 35 37 38 38 38 39 39 38 38 38 38 38 38 37 37 36 35 34 34 34 34 33 37 41 42 42 42 42 41
22 22 21 21 20 20 20 20 21 22 23 23 23 23 23 23 23 22 22 22 22 22 22 23 23 23 23 24 24 24 24 24 24 24 24 24 25 25 25 26 26 27 28 29 29 30 31 32 33 33 33 34 34 35 35 36 37 38 39 40 40 41 42 42 41 40 40 40 40 41 40 39 38 38 37 37 37 35 35 38 41 43 44 45 44
21 22 22 22 22 22 22 22 22 23 24 25 25 25 25 25 24 24 24 24 24 24 25 25 25 25 25 25 25 26 26 26 25 25 25 25 25 25 25 26 26 27 28 29 30 30 31 32 33 34 35 36 37 37 38 38 39 39 40 41 42 43 44 44 44 43 43 42 42 42 43 42 42 41 41 40 39 38 37 37 38 41 44 47 47
22 23 24 24 23 23 23 23 23 24 25 26 27 27 27 26 26 25 26 26 26 26 27 27 27 27 27 27 27 27 26 26 26 25 25 25 25 25 25 26 26 27 27 28 30 30 31 32 33 34 35 36 38 39 40 41 41 41 42 43 44 45 45 46 46 46 46 45 44 43 44 45 45 44 44 44 43 41 40 40 38 39 42 46 49
24 24 24 25 24 24 24 24 24 25 26 27 28 28 28 28 27 27 27 27 28 28 28 29 29 28 28 28 28 28 27 27 26 25 25 25 25 25 25 26 27 28 29 30 30 30 30 31 31 32 34 35 37 39 40 41 42 43 44 45 45 46 47 48 48 48 48 48 47 46 45 46 47 47 47 46 46 44 42 42 41 40 40 42 48
25 24 24 25 24 24 25 25 26 27 28 28 29 29 29 29 29 29 29 29 29 30 30 30 29 29 29 29 29 29 29 28 28 27 27 26 26 26 27 27 28 29 31 32 33 33 33 32 32 32 33 34 36 37 39 40 42 43 45 46 47 47 48 49 50 51 51 51 49 49 48 47 47 49 49 49 48 47 46 45 45 43 41 41 44
25 24 24 25 26 27 27 28 28 28 29 30 30 30 30 31 31 31 31 32 32 32 32 31 30 29 29 30 30 31 31 31 30 30 30 29 29 29 30 30 30 31 32 33 35 36 37 37 36 36 35 35 36 37 39 41 42 43 44 45 47 48 49 50 51 52 53 53 53 51 51 50 49 49 50 51 51 50 49 48 47 46 45 43 43
26 26 26 27 28 29 30 30 30 30 31 32 32 32 32 32 32 32 33 34 34 34 33 32 31 30 30 30 31 32 32 33 33 33 33 33 33 33 33 34 34 34 35 36 36 37 39 40 41 42 41 40 39 39 40 41 42 44 45 46 47 48 49 50 51 52 54 55 56 55 53 53 53 52 51 52 53 53 52 51 50 49 48 47 46
27 28 28 29 30 31 31 31 31 31 32 32 33 33 34 34 34 35 35 35 35 35 34 33 31 31 30 30 31 33 33 34 34 35 35 36 36 36 37 37 38 38 39 39 39 40 40 41 43 44 45 45 45 44 43 43 44 45 46 48 48 49 49 50 51 52 54 56 57 58 57 56 56 55 54 53 54 55 55 54 52 52 51 50 50
26 27 28 29 30 30 30 31 31 32 32 33 34 35 36 36 37 37 36 36 35 35 34 33 33 32 32 32 33 33 34 34 35 36 37 38 38 39 40 40 40 41 42 42 42 43 43 43 43 44 46 47 48 48 48 48 48 47 48 49 50 51 51 51 52 53 54 55 57 59 61 61 60 59 58 56 55 56 57 57 56 54 54 53 53
26 27 28 29 30 30 31 31 32 33 33 34 35 37 38 38 39 39 38 37 37 36 36 35 34 34 34 34 34 34 34 34 35 36 36 38 39 41 41 42 43 44 44 44 44 44 45 45 45 45 46 47 49 50 50 50 51 51 51 51 52 53 53 53 53 54 54 55 56 59 61 63 64 63 62 61 59 58 58 59 59 57 57 56 55
26 27 28 30 31 32 33 34 35 35 36 36 37 38 39 39 40 40 40 39 38 38 37 37 36 36 36 35 35 34 34 34 35 36 37 39 41 42 43 43 45 45 45 45 45 46 47 47 48 48 48 49 50 51 51 51 52 52 53 54 54 55 55 56 56 56 56 56 57 58 60 63 65 66 65 65 64 62 61 61 61 60 59 59 58
27 28 29 31 32 33 34 35 36 36 37 37 38 39 40 40 40 40 40 40 39 39 38 38 37 37 36 36 36 36 36 36 38 39 40 41 42 43 44 45 46 46 46 46 46 47 48 49 50 51 51 52 53 54 54 54 53 54 54 56 57 57 57 57 58 58 58 59 58 58 60 62 65 67 68 68 67 66 65 63 63 63 62 62 61
28 29 30 31 32 33 33 34 34 35 35 36 37 38 39 39 40 40 40 40 40 40 39 39 38 38 37 37 37 38 39 40 41 41 41 41 42 43 45 46 46 46 46 47 47 48 49 50 52 53 54 55 56 57 57 57 57 56 57 57 58 59 60 60 60 60 60 61 61 61 61 61 63 65 68 69 70 69 69 67 66 65 64 64 64
29 29 31 32 33 33 33 33 33 33 34 34 35 36 38 38 39 40 40 40 40 40 40 40 40 39 39 39 39 40 41 41 41 41 41 41 43 44 45 45 45 45 45 46 47 48 50 52 54 56 57 58 59 60 60 60 60 60 60 60 61 62 63 63 63 63 62 62 62 63 64 64 64 65 66 68 70 71 71 71 70 68 67 66 66
28 29 30 32 33 33 33 33 33 33 34 34 35 36 37 38 39 40 40 41 41 41 41 41 41 40 40 40 40 41 41 40 40 40 42 43 44 44 44 45 45 45 44 45 46 48 52 56 58 59 60 61 62 62 62 62 62 62 63 64 64 65 66 66 66 66 65 64 63 63 64 66 67 67 67 67 69 71 73 73 73 72 71 69 68
29 30 31 32 32 33 33 34 34 34 34 34 35 36 38 38 39 39 40 40 41 41 42 42 41 40 40 40 41 42 41 41 41 42 43 44 44 44 45 46 46 45 45 45 46 50 56 61 62 63 63 64 65 65 64 64 64 65 65 66 67 68 69 70 70 69 69 68 66 64 64 64 66 68 70 70 69 70 72 74 75 75 74 73 70
31 31 33 34 34 33 34 34 34 34 35 36 37 38 39 40 40 41 41 41 41 41 42 41 41 40 41 42 43 42 42 42 43 44 44 44 45 45 46 46 46 46 45 46 49 55 61 65 67 68 68 69 69 67 66 66 66 67 68 69 70 71 71 72 72 72 71 70 69 67 65 64 64 66 68 71 72 71 71 72 75 77 77 76 75
32 33 35 36 36 36 36 36 36 37 37 38 39 40 41 41 42 42 43 42 42 42 42 41 41 42 43 43 43 42 42 44 45 44 44 45 46 46 46 46 46 46 46 49 54 60 65 68 70 71 71 72 71 70 68 68 69 70 71 72 73 74 74 75 75 75 74 73 71 69 66 64 63 64 66 68 71 73 73 73 73 76 78 79 78
34 35 36 37 38 37 37 38 38 38 39 40 41 41 42 43 44 44 44 44 43 43 43 43 43 43 44 43 42 42 44 45 46 45 47 48 46 45 45 45 46 46 49 54 59 64 69 71 72 72 73 73 72 71 71 71 72 73 74 75 76 76 77 78 78 77 75 73 71 69 66 64 63 63 65 66 69 71 73 74 74 75 77 79 80
35 36 38 38 38 38 38 38 38 39 39 40 41 42 43 44 45 45 45 45 44 44 43 43 43 43 43 42 43 44 45 46 47 48 49 48 46 46 45 45 47 51 54 58 63 70 73 73 73 73 73 73 73 73 73 74 75 76 76 77 78 79 80 80 79 77 74 72 69 67 65 64 64 64 66 67 69 70 72 74 76 76 76 78 79
37 38 39 39 39 39 40 39 39 39 39 40 41 42 43 44 45 45 45 44 43 43 43 43 43 42 42 43 44 45 46 47 48 49 49 47 46 46 45 46 50 56 58 61 69 74 75 75 74 74 74 73 73 74 75 75 76 77 77 78 79 80 80 80 78 75 72 69 66 65 64 64 64 66 68 69 70 71 72 74 76 78 78 78 79
38 39 40 41 41 41 41 41 41 41 41 41 42 42 43 43 44 43 43 43 43 43 43 42 42 42 43 44 45 46 47 48 49 49 48 47 46 47 48 50 55 59 60 66 74 77 75 76 75 74 74 74 74 74 75 75 76 77 78 79 80 80 79 78 76 73 71 68 65 63 63 64 65 67 69 71 72 73 74 74 76 78 79 80 80
39 40 41 42 43 43 44 43 44 43 43 43 43 44 44 44 43 43 43 42 43 43 42 42 42 43 44 45 46 48 49 49 49 48 47 47 47 49 51 54 58 60 63 72 78 78 77 77 76 76 75 75 74 74 75 76 77 78 79 80 81 80 77 74 73 72 71 68 66 64 63 64 67 69 71 73 74 75 75 76 76 77 79 80 82
40 41 42 43 44 45 45 45 46 46 46 45 45 45 45 45 44 43 43 43 43 43 42 43 43 44 44 45 47 49 49 49 48 47 47 47 49 52 54 57 59 61 68 76 80 79 78 78 78 78 77 76 76 76 77 79 79 80 81 82 80 77 74 72 72 72 73 72 68 65 64 66 68 71 73 75 76 76 76 77 77 77 78 80 82
41 42 42 43 44 45 46 47 47 47 46 46 45 45 45 45 44 43 43 43 43 43 43 43 44 44 45 47 48 49 49 48 48 48 48 48 51 53 56 58 60 65 73 78 80 80 80 80 80 79 78 78 77 78 79 81 82 82 82 81 77 73 71 72 73 75 77 75 71 68 66 66 69 73 75 77 77 78 78 78 79 78 78 80 81
41 42 43 44 44 45 46 46 46 46 45 44 44 44 44 44 43 43 43 44 44 44 44 43 43 44 46 47 48 49 49 49 49 49 48 49 51 54 56 58 62 69 75 78 80 81 82 82 82 81 80 79 79 81 82 83 82 80 79 76 73 72 70 71 73 75 76 74 71 69 67 67 70 74 77 78 79 80 80 80 80 80 80 80 82
42 43 44 44 45 46 46 46 45 44 43 43 43 42 42 43 43 43 44 44 44 44 44 43 43 45 46 47 49 50 50 50 50 49 49 50 51 54 56 59 65 72 75 77 80 82 84 84 83 82 81 81 82 83 83 80 77 74 73 71 71 71 71 72 73 71 71 72 70 69 68 68 70 73 77 79 80 81 82 82 82 82 82 81 82
43 43 44 45 45 45 45 44 43 42 42 42 42 42 42 42 43 43 44 44 44 43 43 44 45 46 47 48 49 50 51 51 51 50 50 51 52 55 58 61 67 72 75 78 81 83 85 85 84 83 83 84 84 81 77 73 71 70 69 69 70 71 72 73 74 71 69 70 70 69 69 69 70 73 76 79 81 82 83 84 85 84 84 84 83
43 43 43 44 44 43 42 41 42 42 43 43 43 42 42 42 42 43 44 44 44 44 44 46 47 48 49 49 50 52 53 53 52 51 50 52 54 58 60 64 68 72 74 78 81 83 86 86 86 85 85 85 82 75 71 70 69 68 68 69 70 72 73 74 75 74 71 69 69 69 70 71 71 73 76 78 80 82 84 84 85 85 86 86 85
43 42 42 43 42 42 41 42 43 44 44 44 43 42 42 42 43 44 44 45 45 46 47 48 49 49 49 50 52 54 54 54 52 51 51 54 57 60 63 66 69 72 75 78 81 84 86 86 86 86 86 84 79 73 71 70 70 69 69 69 70 72 73 74 76 78 77 73 70 69 71 73 75 75 76 78 80 82 83 84 85 86 87 87 88
44 43 42 42 43 44 44 44 45 45 45 44 43 42 42 43 43 44 45 46 47 48 49 49 50 50 50 52 54 55 55 53 51 51 53 56 59 62 65 68 70 72 75 79 82 85 87 87 87 88 86 82 76 73 72 72 71 70 70 70 71 73 74 75 76 78 80 79 75 72 72 74 77 79 79 80 81 82 84 85 86 87 88 89 89
45 44 43 44 46 46 47 46 45 45 44 43 42 42 42 43 44 45 46 47 49 49 50 50 50 51 52 54 55 55 54 52 51 52 56 58 60 63 66 68 71 73 76 80 83 85 87 88 89 89 86 80 76 75 74 74 73 72 72 72 73 74 74 75 77 79 81 82 80 76 75 77 79 80 83 84 84 85 86 87 88 90 91 91 92
47 45 45 47 48 48 48 47 46 44 43 43 42 42 43 43 45 46 47 49 49 50 51 51 52 54 55 55 55 55 53 51 52 55 57 59 62 64 66 69 72 74 77 81 84 86 88 89 90 89 84 79 77 76 76 76 75 74 75 75 75 75 76 77 78 81 83 84 85 82 80 81 82 83 84 87 89 89 90 91 91 92 92 94 95
47 47 47 48 49 48 48 48 46 45 45 44 44 44 44 45 47 48 49 50 50 51 52 53 55 56 56 55 55 53 51 51 55 57 59 61 63 65 68 71 73 75 78 82 85 88 89 91 91 88 83 79 78 78 78 78 77 77 77 78 78 77 78 80 81 84 86 87 89 89 87 85 86 87 87 90 93 94 94 95 95 94 95 95 96
Wind_Direction
52 55 56 43 35 38 50 51 47 47 44 42 39 38 39 40 45 47 56 64 70 75 85 95 103 111 115 118 121 126 131 135 144 152 161 177 197 216 238 256 272 282 290 296 299 300 303 304 300 296 290 282 273 268 264 260 255 252 251 252 253 254 256 256 257 257 255 252 249 247 243 239 236 235 238 240 243 245 246 245 246 246 245 242 238
38 44 41 26 21 28 44 47 44 46 45 45 39 34 29 25 24 20 21 25 33 41 52 64 77 88 98 106 113 121 129 135 144 151 152 161 174 191 211 232 253 268 275 281 286 288 290 293 294 294 296 294 288 280 274 269 265 259 253 250 250 252 253 255 258 257 254 251 249 249 247 245 241 239 239 241 243 244 245 245 245 245 245 244 240
14 19 13 359 1 15 34 37 34 33 31 32 30 28 21 14 6 355 345 333 328 329 336 339 356 22 43 65 70 80 89 118 190 190 169 177 189 194 204 213 226 242 257 269 277 280 281 282 282 280 281 285 288 286 282 278 275 270 264 257 252 250 250 252 255 257 254 251 249 248 247 247 247 244 242 242 244 244 245 244 244 245 245 244 241
356 345 330 321 326 342 12 21 26 17 1 350 341 342 339 336 332 326 318 309 301 298 296 293 291 290 292 295 296 289 287 293 290 285 272 255 258 258 252 244 237 234 239 246 258 268 273 274 275 272 269 269 271 274 277 279 279 278 275 270 263 256 253 252 252 253 253 251 250 249 247 246 248 249 247 245 245 245 245 245 244 243 244 245 242
322 308 296 287 289 290 297 287 264 254 252 252 259 272 280 284 290 291 289 286 283 283 283 281 279 276 277 277 276 273 271 275 277 275 272 269 272 273 270 268 264 260 256 249 248 256 264 270 272 271 268 265 262 262 263 267 271 275 279 278 273 268 262 258 255 253 252 250 249 250 249 248 249 251 251 250 247 246 245 246 245 242 242 244 243
270 267 264 265 275 280 277 269 260 254 248 246 247 252 259 263 265 270 274 276 274 272 271 270 268 263 262 262 262 262 261 264 263 260 261 264 268 269 270 269 268 268 268 266 264 262 263 265 267 270 270 268 265 262 260 259 261 265 270 273 273 272 270 266 261 257 254 251 249 249 249 250 251 251 251 251 249 247 245 245 246 244 241 241 242
282 272 264 269 284 287 282 272 264 259 256 255 254 254 256 258 258 259 263 266 267 265 263 261 261 259 257 256 255 255 255 256 256 257 257 258 259 260 262 263 264 265 266 269 270 269 268 266 265 265 266 268 269 268 265 261 259 260 262 264 265 266 266 267 266 262 259 256 253 251 249 248 249 249 248 248 249 248 247 246 245 245 243 240 240
296 294 292 289 287 286 284 277 270 265 263 261 259 258 257 256 253 252 253 255 258 260 261 260 260 259 259 257 256 257 257 257 258 260 259 258 257 256 257 258 259 260 261 264 265 265 266 267 268 268 268 267 268 269 268 265 262 260 260 260 260 259 259 259 260 262 262 259 258 256 253 251 248 246 244 244 247 247 247 247 245 244 244 242 240
291 297 297 291 286 281 279 277 275 273 269 267 265 264 263 261 259 256 253 253 255 258 261 262 263 262 263 263 262 262 261 261 260 261 261 260 259 258 257 257 258 259 260 260 260 260 259 261 264 268 270 271 270 269 266 265 263 261 260 261 261 259 257 255 254 254 256 258 260 259 257 254 251 245 241 239 241 244 246 246 245 244 243 243 242
284 286 288 286 281 275 273 274 275 275 275 275 274 272 271 269 268 266 263 261 260 261 264 266 267 267 267 268 268 267 266 265 264 262 261 261 260 260 259 258 259 259 259 259 259 258 257 257 259 261 265 269 271 270 268 266 265 263 261 260 261 261 259 257 255 252 250 253 257 260 259 257 254 249 242 238 236 237 241 243 244 244 244 244 244
279 280 280 278 276 272 270 272 273 275 277 280 280 280 278 277 275 273 272 271 270 269 270 271 272 273 274 274 274 273 272 270 269 266 264 262 261 261 261 261 262 261 260 260 261 260 260 259 259 260 261 263 266 268 270 269 268 266 264 261 260 260 260 259 259 256 251 250 253 256 259 258 256 252 245 241 236 233 235 239 242 245 246 246 246
274 275 273 271 271 271 270 272 275 277 278 279 280 281 281 280 280 279 278 277 276 276 276 276 278 279 281 281 280 279 277 275 273 271 268 266 264 263 262 262 263 263 263 263 263 263 263 262 261 261 262 262 263 265 267 268 268 267 266 264 262 260 259 260 260 259 256 253 251 253 256 257 256 254 249 244 240 235 233 235 239 243 246 247 246
270 268 268 267 268 269 270 272 276 280 281 279 277 276 277 277 278 279 280 280 281 280 280 280 281 282 283 283 283 283 282 280 278 275 273 270 269 267 265 264 263 263 263 264 264 265 265 265 264 264 264 263 264 264 265 265 265 265 266 265 264 263 261 260 260 260 260 257 254 253 254 256 255 254 252 248 244 240 236 234 237 240 243 246 245
266 263 264 265 266 267 269 270 273 277 279 279 277 274 273 273 274 274 275 276 278 280 282 283 283 283 283 283 283 283 284 283 282 280 278 276 274 272 271 269 267 266 265 264 264 264 265 266 266 266 265 265 265 265 265 265 264 263 264 264 264 264 263 262 261 261 261 261 259 255 252 253 254 253 253 250 247 244 241 237 236 238 241 242 245
265 261 260 262 264 265 266 267 268 270 275 278 278 276 273 272 271 271 271 272 273 275 278 280 282 283 284 283 284 284 284 284 283 282 281 279 278 277 276 274 273 272 270 268 267 265 265 265 265 266 266 266 266 265 265 265 265 264 263 263 263 263 263 263 262 262 261 261 260 258 254 251 251 251 251 251 249 246 245 241 237 238 240 240 242
267 263 261 261 263 264 265 265 265 267 271 275 277 277 274 271 270 270 270 271 271 273 275 277 279 281 282 283 283 283 282 281 280 280 279 279 279 278 278 277 276 275 274 273 272 271 269 267 266 266 266 266 266 266 265 264 264 264 264 264 264 263 262 262 262 262 261 261 260 259 257 254 251 250 249 250 250 247 246 244 241 239 240 240 241
270 266 265 264 263 263 264 264 264 265 267 272 275 275 273 270 268 268 269 270 271 272 274 276 278 279 280 280 280 279 278 277 277 277 277 277 277 278 278 278 277 276 276 275 274 274 273 272 270 269 267 266 266 266 266 265 264 264 264 264 264 264 263 262 261 261 261 261 260 260 259 258 255 252 250 249 248 247 246 245 243 241 241 241 240
271 266 267 266 263 262 263 264 264 264 267 270 273 274 272 269 267 267 267 269 271 272 274 275 277 278 278 278 276 274 272 271 272 273 275 276 277 278 278 279 279 278 277 276 275 274 273 273 272 272 271 269 268 267 267 266 265 264 264 263 263 264 264 263 261 260 261 261 260 260 259 258 258 256 253 251 247 245 245 246 244 243 242 242 240
271 267 267 267 264 262 263 265 265 265 267 270 273 274 273 270 268 267 268 269 270 272 273 275 275 276 277 277 275 272 270 268 268 270 272 274 276 278 280 281 281 281 280 279 277 276 274 273 272 271 270 270 270 269 268 267 267 266 265 264 263 263 263 264 263 261 261 260 259 259 258 257 257 257 255 253 250 246 244 244 244 244 243 244 243
270 268 268 267 264 263 265 266 267 267 268 270 273 274 273 271 270 269 270 270 271 272 273 274 274 275 276 277 277 275 272 269 268 269 272 274 276 278 281 282 283 283 282 281 281 280 277 275 274 272 271 270 269 269 269 269 268 268 267 265 265 264 263 263 263 263 261 260 259 258 257 256 256 256 255 254 253 249 246 244 243 243 244 244 245
271 270 269 267 266 266 268 269 269 270 270 271 273 274 273 271 271 271 272 272 272 273 273 274 274 275 276 277 277 276 274 271 269 270 272 274 277 279 282 284 285 284 282 281 281 281 281 280 279 277 276 274 272 270 268 268 267 267 267 266 266 265 264 263 263 263 262 261 259 257 256 255 255 255 256 254 254 252 249 248 245 242 243 244 245
274 273 271 269 269 270 272 273 273 272 272 272 274 274 273 272 272 272 273 274 274 274 274 274 274 274 275 276 276 276 275 272 270 270 272 274 277 280 282 284 286 287 285 283 281 279 279 279 280 281 281 280 279 276 274 271 269 268 266 266 266 265 265 264 263 262 262 262 259 258 256 255 253 253 255 255 254 253 251 250 249 245 243 244 245
277 276 273 272 272 273 275 276 275 273 273 274 274 274 273 272 272 273 274 275 275 275 275 274 274 274 275 275 276 276 275 274 272 271 271 273 276 279 281 284 286 287 287 286 284 281 278 277 277 278 279 280 281 281 280 278 276 273 270 268 266 265 265 264 263 262 262 262 260 259 256 255 254 252 252 254 254 254 252 251 251 249 245 243 244
280 278 277 276 276 276 276 276 275 274 274 274 274 273 272 272 271 273 276 276 276 276 275 275 274 274 276 277 278 277 277 275 274 272 272 273 275 278 281 284 285 286 287 287 286 285 282 279 278 276 276 276 278 280 281 281 280 279 276 274 271 269 267 265 264 262 261 261 260 260 258 256 254 252 251 251 253 253 253 251 250 250 249 246 243
282 281 280 279 279 278 277 277 276 275 275 274 273 272 272 273 273 275 277 278 277 276 275 274 274 276 277 279 280 280 278 277 276 275 273 273 275 279 283 285 286 287 286 286 286 286 285 283 281 278 276 275 275 276 277 278 279 280 280 278 276 274 271 269 267 264 262 261 260 260 259 257 255 254 252 250 250 252 253 252 250 250 249 249 246
284 283 283 282 281 279 278 277 277 276 275 274 273 273 274 275 275 276 278 279 278 277 276 275 276 277 279 281 282 282 280 279 278 277 276 275 276 280 285 287 288 289 288 287 286 287 287 286 285 282 278 276 274 274 274 275 276 277 278 278 278 277 276 274 271 268 265 262 260 259 259 258 257 255 254 252 250 250 251 252 251 250 249 248 248
284 284 283 283 281 280 279 278 279 279 278 277 275 275 275 276 276 276 277 279 279 278 277 277 277 279 281 283 284 284 283 281 281 280 279 278 279 283 286 288 290 291 290 289 288 287 288 288 288 286 283 280 277 274 273 273 274 275 275 275 276 276 276 276 274 272 269 266 263 260 259 259 258 256 255 254 252 250 249 250 250 250 249 248 247
283 282 281 281 280 280 280 280 280 281 280 280 278 278 278 278 278 277 277 279 279 278 277 277 278 280 282 284 285 285 285 285 284 284 283 283 284 286 287 289 291 292 290 289 288 287 287 288 288 288 286 284 281 278 275 273 273 274 274 275 275 275 275 275 275 274 272 270 267 263 261 259 259 258 256 255 254 252 250 249 249 249 249 248 247
285 283 281 280 280 280 281 281 281 282 282 281 280 280 279 278 278 277 277 278 278 277 277 277 279 283 285 287 287 287 288 288 288 288 287 286 287 287 288 290 292 292 291 290 288 287 287 287 287 287 287 286 284 281 278 275 274 273 274 274 275 276 276 275 274 274 273 271 269 267 264 261 259 258 257 256 255 254 252 250 249 248 247 248 247
286 284 282 280 280 280 280 280 281 282 283 283 283 282 281 280 279 278 277 277 277 276 277 279 283 286 289 290 290 291 291 290 291 290 289 288 288 288 289 291 292 292 291 289 288 288 288 289 289 289 288 287 285 282 280 278 276 275 274 274 275 276 276 276 276 275 273 271 270 268 266 264 262 260 258 257 256 255 253 251 250 248 247 246 247
286 283 281 279 278 278 279 280 282 284 286 287 287 286 285 284 282 280 279 277 277 277 279 283 286 289 291 291 292 292 292 292 291 290 289 289 289 289 290 291 291 291 290 289 288 290 292 293 293 293 291 289 286 284 281 279 278 278 277 277 277 277 278 278 278 277 276 274 272 270 268 266 264 262 260 258 257 256 254 253 251 250 248 246 246
288 285 283 280 279 279 280 281 283 286 287 288 289 288 288 286 285 283 281 280 279 280 283 286 288 290 291 292 293 293 293 292 291 291 291 290 290 290 290 291 292 292 291 290 292 295 298 298 296 294 293 291 288 285 282 280 279 279 279 279 280 280 280 280 280 280 279 278 275 273 270 268 266 265 263 260 258 256 255 254 253 251 250 248 246
289 288 287 285 284 282 282 282 284 286 288 289 290 291 290 289 288 287 285 284 283 284 285 287 288 290 291 292 293 293 292 292 292 292 292 291 291 291 292 293 295 295 295 296 299 302 303 301 297 294 293 291 289 285 283 281 280 280 280 281 281 282 283 283 283 283 283 282 280 278 274 271 268 266 265 263 261 258 255 254 254 252 251 250 247
290 290 289 289 287 286 284 284 285 286 288 290 292 292 292 292 291 289 288 287 286 286 287 288 289 290 291 292 292 292 292 292 293 293 293 293 293 293 294 296 299 301 301 302 304 306 305 303 300 297 294 292 289 286 284 282 281 281 282 282 283 284 285 285 286 286 286 285 284 283 280 276 272 268 266 264 263 260 257 255 253 253 252 251 249
291 291 290 290 290 289 287 286 286 287 288 290 292 293 293 293 292 291 289 288 287 287 288 289 289 290 290 291 291 291 292 293 293 293 293 294 294 295 298 301 304 305 305 305 305 305 303 302 300 296 293 290 288 286 284 283 282 282 283 284 285 286 286 287 288 288 288 288 287 286 283 280 275 270 267 265 264 262 260 257 254 252 252 251 250
291 291 292 293 293 292 290 289 288 288 289 290 291 292 293 293 292 291 289 288 288 288 288 289 289 289 289 290 290 291 292 293 293 292 293 293 294 297 301 304 306 305 304 304 303 302 301 299 296 292 289 287 286 285 284 283 283 283 284 285 286 287 288 289 289 289 289 289 288 287 284 280 276 271 267 265 264 262 261 259 256 253 251 251 250
293 293 294 295 296 295 294 292 291 290 291 291 291 292 292 292 291 290 288 287 287 288 288 288 288 289 289 290 291 292 293 293 292 291 291 291 294 300 303 303 305 303 301 300 301 300 298 296 292 289 287 286 285 284 283 283 283 284 284 286 287 288 289 290 291 291 290 289 288 286 282 278 274 270 266 264 263 262 260 259 258 255 252 250 250
294 294 295 296 297 297 295 294 293 292 292 292 292 291 290 290 290 289 288 286 286 287 288 288 288 288 290 291 291 292 292 291 290 289 289 291 296 302 301 301 303 301 297 297 299 299 296 293 289 287 286 286 285 284 284 283 284 285 286 288 289 290 291 291 292 292 291 290 287 284 280 276 272 268 265 263 262 262 260 258 257 256 253 251 250
294 294 295 296 297 296 295 294 294 293 292 292 291 291 290 290 289 288 287 286 285 286 286 287 287 288 289 290 290 290 290 289 288 287 289 293 300 303 300 299 300 299 297 297 298 298 295 292 289 287 287 286 286 286 286 286 287 287 288 290 292 292 292 292 292 292 291 289 286 281 276 272 269 266 263 262 261 261 261 259 257 255 253 252 250
293 294 294 294 295 294 294 293 293 292 292 292 291 290 289 289 289 288 286 284 284 285 285 286 287 288 288 288 288 289 289 288 287 288 292 297 301 302 299 297 298 298 299 299 298 297 295 291 289 288 288 288 289 289 289 289 289 290 291 292 293 293 292 292 292 293 292 290 286 280 274 268 265 263 261 260 260 260 260 260 258 255 253 251 250
292 292 292 292 292 293 293 293 293 292 292 291 290 288 287 287 287 286 285 283 283 283 284 285 286 287 287 287 288 288 288 287 287 290 295 298 300 300 298 297 298 300 301 300 298 297 294 292 290 290 290 291 291 291 291 291 291 291 292 293 293 293 292 293 293 294 293 291 287 280 273 267 262 260 260 259 259 258 259 259 259 257 254 252 250
290 291 291 291 291 292 293 293 293 292 291 290 288 286 286 286 285 284 282 281 281 282 283 284 284 285 285 286 287 288 288 287 289 292 294 296 298 297 297 298 300 302 304 302 299 296 294 293 292 292 293 293 293 293 293 294 293 292 292 292 291 290 291 292 293 293 292 290 287 281 274 267 261 259 258 258 257 257 257 257 258 257 256 254 251
290 291 291 291 292 293 293 293 293 292 291 289 287 286 285 284 283 281 279 279 279 280 281 282 282 284 285 286 287 288 287 288 290 292 293 294 295 296 297 299 302 305 305 302 299 297 295 294 294 295 295 295 295 296 296 295 293 291 290 290 289 288 289 291 292 291 291 289 287 282 276 269 262 259 258 257 257 257 257 257 257 257 256 255 253
291 291 292 293 293 293 293 294 293 293 292 290 289 287 284 281 280 278 277 277 278 279 280 281 282 284 285 287 288 288 288 289 290 291 291 292 294 296 299 301 304 305 304 302 300 297 296 296 296 297 297 298 299 298 297 293 291 290 289 290 290 291 291 292 292 291 290 289 287 283 278 271 265 260 258 257 257 257 257 257 257 257 257 256 255
291 292 293 294 294 293 293 293 293 292 291 290 289 286 282 279 276 274 274 275 276 278 280 282 284 285 286 287 288 288 289 289 290 290 290 291 295 298 300 302 304 305 303 302 300 298 297 297 298 299 299 301 301 298 294 290 289 290 290 291 293 294 294 294 293 291 291 290 288 285 279 273 268 263 260 258 257 257 257 257 257 257 257 257 256
290 291 293 294 294 293 293 293 293 291 290 289 288 285 281 277 274 273 273 275 276 278 281 284 285 286 287 288 288 289 290 290 289 288 289 294 298 299 300 303 304 304 303 301 300 299 298 298 299 300 301 302 300 295 291 289 289 289 291 293 294 295 296 295 294 292 291 291 290 288 283 277 271 265 262 259 258 257 257 257 256 256 257 258 257
288 290 292 294 292 291 292 293 292 289 288 288 286 284 281 277 274 273 274 275 277 280 283 284 285 287 288 288 289 290 290 290 289 288 293 298 300 299 300 302 303 303 302 301 299 298 298 298 299 300 302 302 298 292 289 289 288 289 290 292 293 294 295 295 295 294 293 291 290 289 286 282 276 270 265 261 258 257 256 256 255 255 256 257 257
288 289 290 291 290 289 289 291 290 288 286 286 284 282 280 277 276 275 275 277 279 281 283 285 286 288 288 289 289 290 290 289 288 291 297 299 299 299 300 301 302 302 302 300 299 298 298 298 299 301 302 300 294 290 289 288 288 289 290 292 293 293 293 294 294 293 293 292 291 289 287 283 278 274 270 265 261 258 255 253 253 254 255 255 255
289 288 288 289 289 288 287 288 289 287 285 284 282 281 280 278 277 278 278 279 281 283 285 286 288 288 288 289 289 289 289 289 290 295 298 298 298 299 301 301 301 301 301 299 298 297 297 298 299 301 302 298 292 289 288 288 288 289 291 292 293 293 293 294 294 293 292 291 291 289 287 283 279 274 271 267 264 261 257 254 252 251 252 253 253
289 290 289 290 290 288 285 286 287 286 283 282 281 280 280 279 280 280 282 283 285 286 287 288 288 288 288 288 288 288 289 290 294 297 296 297 298 299 300 300 300 300 300 298 297 297 297 298 300 302 301 296 291 289 288 288 289 290 291 292 293 293 293 294 295 294 292 290 289 288 286 283 280 276 271 267 265 262 259 257 254 251 250 250 251
291 291 290 290 290 288 285 285 286 284 282 280 280 280 280 281 282 284 285 287 287 288 288 287 287 287 286 287 287 288 289 292 295 295 295 297 298 299 299 299 299 299 299 298 297 297 298 299 301 302 301 295 291 289 288 288 289 290 291 292 293 293 294 296 296 295 293 291 289 287 285 282 279 277 273 268 265 262 260 258 256 254 251 249 249
Height
5875 5874 5874 5873 5873 5873 5873 5873 5873 5873 5872 5872 5871 5871 5870 5870 5869 5869 5868 5868 5867 5866 5866 5865 5865 5865 5865 5865 5866 5866 5866 5866 5865 5865 5865 5865 5866 5866 5866 5866 5866 5866 5866 5866 5866 5867 5867 5867 5867 5868 5868 5869 5870 5870 5871 5872 5873 5873 5874 5874 5874 5874 5875 5875 5876 5877 5878 5879 5879 5880 5880 5881 5881 5881 5882 5882 5883 5884 5884 5885 5886 5888 5889 5890 5891
5876 5875 5875 5874 5874 5874 5874 5873 5873 5873 5872 5872 5872 5871 5870 5870 5869 5869 5868 5868 5867 5866 5866 5866 5866 5865 5865 5865 5865 5865 5865 5865 5864 5864 5864 5864 5865 5865 5865 5865 5865 5865 5865 5865 5865 5865 5865 5866 5866 5866 5867 5867 5868 5869 5869 5870 5871 5871 5872 5872 5872 5872 5873 5873 5874 5875 5876 5877 5878 5878 5879 5879 5880 5881 5881 5882 5882 5883 5883 5884 5885 5886 5887 5889 5890
5876 5875 5875 5875 5875 5875 5874 5874 5873 5873 5872 5872 5872 5871 5871 5870 5869 5869 5868 5868 5867 5867 5866 5866 5866 5865 5865 5865 5865 5865 5865 5864 5864 5864 5864 5864 5864 5864 5864 5864 5864 5864 5864 5864 5864 5864 5864 5864 5864 5864 5865 5865 5866 5867 5867 5868 5868 5869 5870 5870 5870 5871 5871 5871 5872 5873 5874 5875 5876 5876 5877 5878 5879 5880 5880 5881 5882 5882 5882 5882 5883 5884 5886 5887 5888
5876 5876 5876 5876 5876 5875 5874 5874 5873 5873 5872 5872 5871 5871 5871 5870 5870 5869 5868 5868 5867 5867 5866 5866 5865 5865 5865 5864 5864 5864 5864 5864 5864 5864 5864 5864 5864 5864 5864 5864 5864 5864 5863 5863 5863 5863 5863 5863 5863 5863 5863 5863 5864 5865 5865 5865 5866 5867 5867 5868 5868 5869 5869 5869 5870 5870 5871 5872 5874 5874 5875 5876 5877 5878 5879 5880 5880 5881 5881 5881 5882 5883 5884 5885 5886
5876 5876 5876 5875 5875 5875 5875 5874 5874 5873 5873 5872 5871 5871 5870 5870 5870 5869 5868 5868 5867 5867 5866 5865 5865 5864 5864 5864 5864 5863 5863 5863 5863 5863 5863 5863 5863 5863 5863 5863 5863 5863 5863 5863 5862 5862 5862 5862 5862 5862 5862 5862 5862 5862 5863 5863 5863 5864 5864 5865 5865 5866 5867 5867 5868 5868 5869 5870 5871 5872 5873 5873 5874 5875 5876 5877 5878 5878 5879 5879 5880 5881 5883 5883 5884
5875 5875 5875 5874 5874 5874 5874 5874 5874 5873 5873 5872 5871 5871 5870 5870 5869 5869 5868 5868 5867 5867 5866 5865 5864 5864 5863 5863 5863 5862 5862 5862 5862 5862 5862 5862 5862 5862 5862 5862 5862 5862 5862 5862 5862 5862 5861 5861 5861 5861 5861 5861 5861 5861 5861 5861 5861 5861 5862 5862 5863 5863 5864 5865 5866 5866 5867 5867 5868 5869 5870 5871 5871 5872 5873 5874 5875 5875 5876 5877 5878 5879 5880 5881 5882
5874 5874 5874 5873 5873 5873 5873 5873 5873 5873 5872 5872 5871 5871 5870 5869 5869 5868 5868 5867 5867 5866 5866 5865 5864 5863 5863 5862 5862 5861 5861 5861 5860 5860 5860 5860 5860 5860 5860 5861 5861 5861 5861 5861 5861 5861 5860 5860 5860 5860 5860 5860 5860 5860 5860 5860 5860 5859 5859 5859 5860 5860 5861 5862 5863 5864 5865 5865 5865 5866 5867 5868 5868 5869 5870 5870 5871 5872 5873 5874 5876 5877 5878 5879 5880
5873 5873 5872 5872 5872 5872 5872 5872 5872 5872 5872 5871 5871 5870 5870 5869 5869 5868 5867 5867 5866 5866 5865 5865 5864 5863 5863 5862 5862 5861 5861 5860 5860 5859 5859 5859 5859 5859 5859 5859 5859 5859 5859 5859 5859 5859 5859 5859 5859 5859 5859 5858 5858 5858 5858 5858 5858 5858 5858 5858 5857 5858 5858 5859 5860 5861 5861 5862 5863 5863 5864 5865 5865 5866 5867 5867 5868 5869 5870 5871 5873 5874 5875 5876 5877
5872 5872 5871 5871 5871 5871 5871 5871 5871 5871 5871 5870 5870 5870 5869 5869 5868 5868 5867 5867 5866 5865 5865 5864 5864 5863 5862 5862 5861 5861 5860 5860 5859 5859 5858 5858 5858 5858 5858 5858 5858 5858 5858 5858 5857 5857 5857 5857 5857 5857 5857 5857 5857 5856 5856 5856 5856 5857 5857 5856 5856 5856 5856 5856 5856 5857 5858 5859 5860 5860 5861 5862 5862 5863 5864 5864 5865 5866 5867 5868 5870 5871 5873 5873 5874
5871 5871 5871 5870 5870 5870 5870 5870 5870 5870 5869 5869 5869 5869 5868 5868 5867 5867 5867 5866 5866 5865 5864 5864 5863 5863 5862 5862 5861 5861 5860 5860 5859 5859 5858 5858 5857 5857 5857 5857 5856 5856 5856 5855 5855 5855 5855 5855 5855 5855 5855 5855 5855 5854 5854 5854 5854 5854 5855 5855 5854 5854 5854 5854 5854 5854 5854 5856 5856 5857 5858 5858 5859 5860 5861 5861 5862 5863 5864 5865 5866 5868 5870 5870 5871
5870 5870 5870 5870 5869 5869 5869 5869 5868 5868 5868 5867 5867 5867 5866 5866 5866 5866 5865 5865 5865 5864 5864 5863 5863 5862 5862 5861 5861 5860 5860 5859 5858 5858 5857 5857 5856 5856 5856 5855 5855 5854 5854 5854 5853 5853 5852 5853 5853 5853 5853 5853 5852 5852 5852 5852 5852 5852 5852 5852 5852 5852 5852 5852 5852 5851 5852 5852 5853 5853 5854 5855 5855 5857 5858 5858 5859 5860 5862 5863 5863 5865 5866 5867 5868
5868 5868 5868 5868 5868 5868 5867 5867 5867 5866 5866 5865 5865 5865 5864 5864 5864 5863 5863 5863 5863 5863 5862 5862 5861 5861 5860 5860 5860 5859 5858 5858 5857 5856 5856 5855 5855 5855 5854 5854 5854 5853 5852 5852 5851 5851 5850 5850 5850 5850 5850 5850 5850 5849 5849 5849 5849 5849 5850 5850 5850 5850 5850 5850 5850 5849 5849 5849 5850 5850 5850 5851 5852 5853 5854 5855 5856 5857 5858 5860 5860 5861 5862 5864 5864
5866 5866 5866 5866 5866 5866 5865 5865 5865 5864 5864 5863 5863 5862 5862 5862 5862 5861 5861 5861 5861 5860 5860 5860 5860 5859 5859 5858 5858 5857 5857 5856 5856 5855 5854 5854 5853 5853 5853 5852 5852 5851 5851 5850 5849 5849 5848 5848 5848 5848 5847 5847 5847 5847 5846 5846 5846 5846 5847 5847 5847 5847 5848 5848 5847 5847 5847 5847 5847 5847 5847 5847 5848 5849 5850 5851 5853 5854 5855 5856 5857 5858 5859 5860 5860
5865 5865 5864 5864 5864 5863 5863 5863 5863 5862 5862 5861 5861 5860 5860 5860 5859 5859 5859 5859 5858 5858 5858 5858 5858 5857 5857 5857 5856 5855 5855 5854 5854 5853 5853 5852 5852 5851 5851 5850 5850 5849 5849 5848 5848 5847 5846 5846 5845 5845 5845 5845 5844 5844 5844 5843 5843 5843 5843 5844 5844 5844 5845 5845 5845 5845 5845 5844 5844 5844 5844 5843 5844 5845 5846 5847 5848 5850 5852 5853 5853 5854 5855 5856 5857
5864 5863 5863 5862 5862 5861 5861 5861 5861 5860 5860 5859 5859 5858 5858 5857 5857 5856 5856 5856 5856 5856 5856 5855 5855 5855 5855 5854 5854 5853 5853 5852 5852 5851 5851 5850 5850 5849 5849 5848 5848 5847 5847 5846 5845 5845 5844 5844 5843 5843 5842 5842 5842 5841 5841 5841 5840 5840 5840 5840 5840 5840 5841 5841 5841 5842 5842 5842 5841 5841 5841 5840 5840 5841 5842 5843 5844 5845 5847 5849 5850 5850 5851 5852 5853
5862 5862 5861 5860 5860 5859 5859 5859 5858 5858 5857 5857 5856 5856 5855 5855 5854 5854 5854 5853 5853 5853 5853 5853 5852 5852 5852 5852 5851 5851 5850 5850 5849 5849 5848 5848 5847 5847 5846 5846 5845 5844 5844 5843 5843 5842 5842 5841 5841 5840 5840 5839 5839 5838 5838 5838 5837 5837 5837 5836 5836 5836 5837 5837 5837 5838 5838 5838 5838 5838 5838 5837 5837 5837 5837 5838 5839 5841 5842 5844 5846 5846 5846 5848 5850
5860 5860 5859 5858 5858 5857 5857 5856 5856 5855 5855 5854 5854 5853 5853 5852 5852 5851 5851 5851 5851 5850 5850 5850 5850 5850 5849 5849 5848 5848 5847 5847 5846 5845 5845 5844 5844 5844 5843 5843 5842 5841 5841 5840 5840 5839 5838 5838 5838 5838 5837 5837 5836 5835 5835 5834 5834 5834 5834 5833 5833 5832 5832 5832 5833 5833 5834 5834 5835 5835 5835 5835 5835 5834 5834 5834 5835 5836 5837 5839 5841 5842 5842 5843 5845
5857 5857 5856 5856 5855 5855 5854 5854 5853 5853 5852 5852 5852 5851 5850 5850 5849 5849 5848 5848 5848 5848 5847 5847 5847 5846 5846 5846 5845 5845 5844 5843 5843 5842 5842 5841 5841 5840 5840 5839 5839 5838 5837 5837 5836 5836 5835 5834 5834 5834 5834 5833 5833 5832 5832 5831 5831 5831 5830 5830 5829 5829 5828 5828 5828 5829 5829 5830 5830 5831 5831 5831 5831 5831 5831 5830 5831 5832 5833 5834 5836 5838 5838 5838 5840
5854 5854 5854 5853 5852 5852 5852 5851 5851 5850 5850 5849 5849 5848 5848 5847 5846 5846 5845 5845 5845 5845 5844 5844 5843 5843 5843 5842 5842 5841 5840 5840 5839 5839 5838 5838 5837 5837 5836 5835 5835 5834 5834 5833 5832 5832 5831 5831 5830 5830 5830 5829 5829 5829 5828 5828 5828 5827 5827 5826 5826 5825 5824 5824 5824 5824 5825 5825 5826 5826 5827 5827 5828 5827 5827 5827 5827 5828 5828 5829 5831 5832 5834 5834 5834
5851 5851 5851 5850 5850 5849 5849 5849 5848 5848 5847 5847 5846 5846 5845 5844 5844 5843 5843 5842 5842 5841 5841 5840 5840 5839 5839 5839 5838 5838 5837 5836 5836 5836 5835 5834 5834 5833 5833 5832 5831 5830 5830 5829 5828 5828 5827 5827 5826 5826 5825 5825 5824 5824 5824 5824 5823 5823 5823 5822 5822 5821 5821 5820 5820 5820 5820 5821 5821 5822 5822 5823 5824 5823 5823 5824 5824 5825 5825 5825 5826 5827 5829 5829 5829
5849 5849 5848 5848 5847 5847 5846 5846 5845 5845 5844 5844 5843 5843 5842 5841 5841 5840 5840 5839 5838 5838 5837 5837 5836 5836 5836 5835 5835 5834 5834 5833 5833 5832 5832 5831 5830 5830 5829 5828 5828 5827 5826 5825 5825 5824 5823 5823 5822 5821 5821 5821 5820 5819 5819 5819 5819 5819 5818 5818 5818 5817 5817 5816 5816 5816 5815 5816 5816 5817 5817 5818 5819 5819 5819 5819 5820 5821 5822 5822 5822 5823 5823 5824 5824
5846 5846 5846 5845 5845 5844 5843 5843 5842 5842 5841 5841 5840 5840 5839 5838 5838 5837 5837 5836 5835 5835 5834 5833 5833 5833 5832 5832 5832 5831 5830 5830 5829 5829 5828 5828 5827 5826 5826 5825 5824 5823 5822 5821 5821 5820 5819 5818 5818 5817 5816 5816 5815 5815 5814 5814 5814 5814 5813 5813 5813 5813 5812 5812 5812 5811 5811 5811 5811 5812 5813 5813 5814 5814 5815 5815 5815 5816 5818 5818 5818 5819 5819 5819 5819
5844 5844 5843 5842 5841 5840 5840 5839 5839 5838 5838 5837 5837 5836 5836 5835 5835 5834 5834 5833 5832 5831 5831 5830 5830 5829 5829 5828 5828 5828 5827 5826 5826 5825 5825 5824 5823 5823 5822 5821 5820 5819 5819 5818 5817 5816 5815 5814 5813 5813 5812 5811 5811 5810 5810 5809 5809 5809 5809 5808 5808 5808 5808 5807 5807 5807 5807 5806 5806 5807 5807 5808 5809 5809 5810 5810 5810 5811 5812 5814 5814 5815 5815 5815 5814
5841 5841 5840 5839 5838 5837 5836 5836 5836 5835 5834 5834 5833 5833 5832 5832 5831 5831 5830 5829 5828 5828 5827 5826 5826 5826 5825 5825 5824 5824 5824 5823 5822 5821 5821 5820 5820 5819 5818 5817 5816 5815 5815 5813 5812 5811 5810 5810 5809 5808 5807 5807 5806 5805 5805 5804 5804 5803 5803 5803 5803 5803 5803 5802 5802 5802 5802 5802 5801 5801 5802 5803 5803 5803 5804 5804 5805 5805 5806 5808 5809 5810 5810 5811 5810
5838 5838 5837 5836 5835 5834 5833 5833 5832 5831 5831 5830 5830 5829 5829 5828 5828 5827 5826 5826 5825 5824 5823 5823 5822 5822 5821 5821 5820 5820 5819 5819 5818 5817 5817 5816 5815 5815 5814 5813 5812 5811 5810 5809 5808 5807 5806 5805 5804 5803 5802 5802 5801 5800 5799 5799 5798 5798 5797 5797 5797 5797 5797 5797 5797 5797 5796 5796 5796 5796 5796 5797 5797 5797 5798 5799 5799 5800 5800 5802 5804 5804 5805 5806 5806
5835 5834 5833 5832 5831 5831 5830 5829 5829 5828 5827 5827 5826 5825 5825 5824 5824 5823 5822 5821 5821 5820 5819 5819 5818 5818 5817 5817 5816 5815 5815 5814 5813 5812 5812 5811 5811 5810 5809 5809 5808 5807 5805 5804 5803 5802 5801 5800 5799 5798 5797 5796 5795 5794 5793 5793 5793 5792 5792 5791 5791 5791 5791 5791 5791 5791 5791 5791 5791 5790 5790 5790 5790 5791 5792 5793 5793 5794 5794 5795 5797 5799 5799 5800 5801
5831 5831 5830 5829 5828 5827 5826 5826 5825 5825 5824 5823 5822 5821 5821 5820 5819 5819 5818 5817 5816 5816 5815 5815 5814 5813 5813 5812 5811 5811 5810 5809 5808 5808 5807 5806 5805 5805 5804 5804 5802 5801 5800 5799 5798 5797 5795 5794 5793 5792 5791 5790 5789 5788 5787 5787 5786 5786 5785 5785 5784 5784 5784 5784 5784 5784 5784 5784 5785 5784 5784 5783 5784 5785 5785 5786 5787 5787 5788 5788 5790 5792 5793 5794 5795
5828 5827 5825 5824 5823 5823 5822 5822 5821 5821 5820 5819 5818 5817 5816 5816 5815 5814 5814 5813 5812 5811 5811 5810 5809 5809 5808 5807 5806 5806 5805 5804 5803 5803 5802 5801 5800 5799 5799 5798 5797 5796 5795 5794 5792 5791 5790 5789 5787 5786 5785 5784 5783 5782 5781 5780 5779 5779 5778 5778 5777 5777 5777 5776 5776 5777 5777 5777 5777 5778 5777 5777 5777 5777 5778 5779 5779 5780 5781 5782 5783 5785 5787 5788 5788
5823 5822 5821 5820 5819 5818 5818 5817 5817 5816 5815 5814 5813 5812 5812 5811 5810 5810 5809 5808 5808 5807 5806 5805 5805 5804 5803 5802 5801 5801 5800 5799 5798 5797 5796 5796 5795 5794 5793 5792 5791 5790 5789 5788 5787 5786 5784 5783 5782 5781 5779 5778 5777 5776 5775 5773 5772 5771 5771 5770 5769 5769 5769 5769 5769 5769 5769 5769 5769 5770 5770 5770 5770 5770 5771 5771 5772 5773 5774 5775 5775 5777 5779 5781 5782
5819 5818 5817 5815 5814 5814 5813 5813 5812 5811 5810 5809 5808 5808 5807 5806 5806 5805 5804 5804 5803 5802 5801 5800 5800 5799 5798 5797 5796 5795 5794 5793 5792 5792 5791 5790 5790 5789 5788 5787 5785 5784 5783 5782 5780 5779 5778 5777 5775 5774 5773 5771 5770 5768 5767 5766 5765 5764 5763 5762 5762 5761 5761 5760 5761 5761 5761 5761 5761 5762 5762 5762 5762 5762 5763 5764 5764 5765 5766 5767 5768 5769 5772 5774 5775
5816 5814 5813 5811 5810 5809 5809 5808 5807 5806 5805 5804 5804 5803 5802 5801 5801 5800 5799 5799 5798 5797 5796 5795 5794 5793 5792 5791 5790 5789 5789 5788 5787 5786 5786 5785 5784 5784 5782 5781 5780 5778 5777 5775 5774 5772 5771 5769 5768 5766 5765 5764 5762 5760 5759 5758 5756 5755 5754 5753 5753 5752 5752 5752 5752 5752 5752 5752 5753 5753 5754 5754 5754 5754 5755 5756 5757 5757 5758 5759 5760 5761 5763 5766 5768
5812 5810 5809 5807 5806 5805 5804 5803 5802 5801 5800 5799 5799 5798 5797 5796 5796 5795 5794 5793 5793 5792 5791 5790 5789 5788 5787 5786 5785 5784 5783 5782 5782 5781 5781 5780 5779 5778 5777 5775 5774 5772 5770 5769 5767 5765 5763 5762 5760 5758 5757 5755 5754 5752 5751 5749 5748 5746 5745 5744 5743 5743 5743 5742 5743 5743 5743 5743 5743 5744 5745 5745 5745 5745 5746 5747 5748 5749 5750 5751 5752 5754 5755 5757 5760
5808 5806 5805 5803 5801 5800 5799 5798 5797 5796 5795 5794 5794 5793 5792 5791 5790 5789 5789 5788 5787 5786 5785 5785 5784 5783 5782 5781 5780 5779 5778 5777 5777 5776 5775 5775 5774 5772 5771 5769 5767 5765 5763 5762 5760 5758 5756 5754 5752 5750 5748 5747 5745 5744 5742 5741 5739 5738 5736 5735 5734 5733 5733 5732 5732 5732 5732 5732 5733 5734 5735 5735 5736 5736 5736 5737 5738 5740 5742 5743 5744 5745 5747 5749 5751
5804 5802 5800 5798 5797 5796 5794 5793 5792 5791 5790 5789 5788 5787 5786 5785 5784 5783 5782 5782 5781 5781 5780 5779 5778 5778 5776 5775 5774 5773 5772 5772 5771 5770 5770 5769 5768 5766 5765 5762 5760 5758 5756 5754 5753 5751 5749 5747 5745 5743 5741 5739 5737 5735 5733 5732 5730 5729 5727 5726 5725 5724 5723 5722 5722 5721 5721 5721 5722 5722 5723 5724 5725 5726 5726 5727 5728 5730 5732 5734 5735 5736 5738 5740 5742
5800 5798 5796 5794 5792 5791 5790 5788 5787 5786 5785 5784 5783 5782 5780 5779 5778 5777 5776 5776 5775 5775 5774 5773 5772 5772 5771 5769 5768 5767 5766 5766 5765 5764 5764 5763 5761 5760 5758 5756 5754 5752 5750 5748 5747 5745 5743 5741 5738 5736 5733 5731 5729 5726 5724 5723 5722 5720 5718 5717 5715 5714 5713 5712 5711 5711 5710 5710 5711 5711 5711 5712 5714 5715 5716 5717 5718 5719 5721 5723 5725 5727 5728 5730 5732
5795 5793 5791 5789 5788 5786 5785 5783 5782 5781 5780 5778 5777 5776 5775 5773 5773 5771 5771 5770 5769 5769 5768 5767 5766 5766 5765 5763 5762 5761 5761 5760 5759 5759 5758 5756 5755 5754 5752 5749 5747 5746 5744 5743 5741 5739 5737 5734 5731 5728 5725 5723 5720 5718 5716 5714 5713 5711 5709 5708 5707 5705 5703 5702 5701 5700 5699 5699 5699 5699 5700 5701 5702 5703 5704 5706 5707 5708 5710 5711 5714 5717 5719 5721 5723
5790 5788 5786 5784 5783 5781 5780 5778 5777 5776 5775 5773 5772 5771 5769 5768 5767 5766 5765 5764 5763 5763 5762 5761 5761 5760 5759 5758 5757 5756 5755 5754 5754 5753 5752 5750 5749 5747 5745 5743 5742 5740 5739 5737 5735 5732 5729 5725 5722 5719 5717 5715 5712 5710 5707 5705 5704 5702 5700 5699 5697 5696 5694 5692 5690 5688 5688 5688 5688 5689 5689 5690 5690 5691 5692 5694 5696 5697 5699 5701 5703 5705 5708 5711 5714
5785 5783 5782 5780 5778 5776 5774 5773 5772 5771 5770 5768 5767 5766 5764 5763 5762 5760 5759 5759 5758 5757 5757 5756 5755 5754 5753 5752 5751 5750 5749 5749 5748 5747 5745 5744 5742 5740 5738 5737 5736 5734 5733 5731 5727 5723 5719 5716 5713 5711 5708 5706 5704 5701 5699 5697 5695 5693 5692 5690 5688 5686 5684 5682 5680 5678 5677 5677 5678 5678 5679 5679 5680 5680 5681 5682 5683 5686 5688 5690 5691 5694 5697 5700 5703
5781 5779 5777 5775 5774 5772 5770 5768 5767 5766 5765 5763 5762 5760 5759 5757 5756 5755 5754 5753 5752 5752 5751 5750 5748 5748 5747 5746 5745 5744 5743 5742 5741 5740 5739 5737 5735 5733 5732 5730 5729 5728 5726 5722 5717 5713 5710 5707 5704 5702 5699 5697 5695 5692 5690 5688 5687 5684 5683 5681 5678 5676 5674 5671 5670 5669 5668 5668 5668 5668 5669 5669 5670 5670 5670 5671 5672 5674 5676 5679 5680 5682 5686 5689 5692
5776 5775 5773 5772 5770 5767 5765 5764 5762 5761 5760 5758 5757 5755 5753 5752 5750 5749 5748 5747 5747 5746 5744 5743 5742 5741 5741 5740 5739 5738 5737 5736 5735 5733 5732 5730 5728 5727 5725 5723 5722 5721 5718 5713 5708 5705 5702 5698 5696 5694 5691 5689 5686 5683 5680 5678 5676 5674 5672 5671 5669 5666 5664 5661 5660 5659 5658 5658 5658 5659 5659 5658 5659 5659 5659 5660 5661 5663 5664 5666 5668 5671 5674 5678 5680
5772 5771 5769 5768 5765 5763 5761 5760 5758 5756 5754 5753 5751 5749 5748 5746 5745 5744 5743 5742 5741 5740 5738 5737 5736 5736 5735 5734 5733 5732 5731 5729 5727 5726 5724 5722 5721 5720 5718 5716 5714 5713 5710 5705 5700 5696 5693 5690 5687 5684 5682 5680 5677 5674 5670 5667 5665 5664 5662 5662 5659 5657 5654 5652 5651 5649 5649 5649 5649 5649 5649 5648 5648 5648 5648 5649 5650 5652 5653 5654 5656 5659 5662 5665 5668
5768 5767 5765 5763 5761 5759 5757 5755 5753 5751 5749 5747 5745 5744 5742 5741 5739 5738 5737 5736 5735 5733 5732 5731 5730 5730 5729 5727 5726 5725 5723 5722 5720 5719 5717 5716 5714 5712 5710 5708 5706 5704 5701 5696 5691 5687 5683 5680 5677 5675 5672 5670 5667 5664 5660 5656 5654 5652 5651 5651 5651 5648 5647 5643 5641 5641 5640 5640 5639 5638 5639 5638 5637 5637 5637 5638 5639 5640 5641 5643 5645 5647 5649 5652 5655
5764 5762 5760 5758 5756 5754 5751 5750 5748 5745 5743 5742 5740 5738 5737 5735 5734 5732 5731 5730 5729 5727 5726 5726 5725 5723 5722 5721 5719 5717 5716 5715 5713 5712 5710 5708 5707 5704 5702 5700 5697 5695 5692 5687 5683 5678 5674 5671 5667 5665 5662 5659 5657 5653 5649 5645 5642 5640 5638 5638 5639 5639 5640 5636 5633 5634 5632 5630 5629 5628 5628 5628 5627 5626 5626 5626 5628 5628 5629 5631 5633 5635 5637 5639 5642
5758 5756 5754 5752 5750 5748 5745 5744 5742 5739 5738 5736 5734 5732 5730 5729 5728 5726 5725 5724 5723 5722 5721 5720 5719 5717 5716 5714 5712 5710 5708 5707 5706 5704 5703 5700 5698 5696 5694 5691 5689 5686 5682 5679 5675 5670 5666 5661 5658 5654 5651 5648 5646 5642 5639 5634 5630 5628 5626 5626 5625 5625 5628 5626 5623 5626 5623 5619 5619 5617 5617 5617 5616 5615 5615 5615 5616 5617 5618 5619 5621 5623 5626 5627 5629
5752 5750 5748 5747 5744 5742 5740 5738 5736 5734 5732 5730 5728 5726 5724 5722 5721 5720 5719 5718 5717 5716 5715 5714 5712 5710 5709 5707 5705 5703 5701 5700 5698 5697 5695 5693 5690 5688 5686 5683 5680 5677 5674 5670 5666 5662 5657 5653 5648 5644 5640 5637 5635 5632 5628 5624 5621 5618 5615 5614 5613 5612 5615 5613 5610 5614 5615 5609 5608 5608 5606 5605 5605 5604 5603 5604 5604 5604 5606 5607 5608 5610 5613 5615 5617
5747 5745 5743 5741 5739 5736 5734 5732 5730 5728 5726 5724 5722 5720 5718 5716 5715 5714 5713 5712 5711 5710 5709 5707 5705 5703 5701 5700 5698 5697 5694 5692 5691 5689 5687 5685 5682 5680 5677 5674 5671 5668 5665 5661 5657 5653 5649 5645 5640 5635 5631 5627 5624 5622 5619 5615 5612 5610 5606 5603 5601 5600 5600 5600 5596 5598 5603 5601 5598 5597 5596 5594 5593 5592 5592 5592 5592 5592 5593 5594 5596 5597 5599 5602 5605
5742 5740 5739 5736 5733 5731 5729 5727 5725 5723 5721 5718 5716 5714 5712 5710 5709 5708 5707 5706 5705 5704 5702 5700 5698 5696 5694 5692 5691 5689 5687 5685 5683 5681 5679 5677 5674 5671 5669 5665 5662 5659 5655 5651 5647 5643 5639 5635 5631 5626 5622 5618 5614 5612 5609 5606 5603 5601 5599 5595 5592 5589 5587 5587 5584 5581 5584 5588 5590 5587 5583 5582 5580 5579 5580 5580 5580 5580 5580 5581 5582 5584 5586 5588 5591
5737 5736 5734 5731 5728 5726 5724 5722 5719 5717 5715 5712 5710 5708 5706 5705 5704 5703 5702 5700 5699 5697 5696 5693 5691 5689 5687 5685 5683 5681 5679 5677 5675 5673 5671 5669 5666 5663 5660 5656 5653 5649 5646 5642 5638 5634 5630 5626 5622 5617 5613 5609 5604 5601 5599 5596 5593 5591 5589 5586 5583 5580 5577 5575 5573 5570 5566 5568 5575 5577 5572 5569 5567 5566 5566 5566 5567 5567 5567 5568 5569 5569 5571 5574 5577
5732 5730 5728 5726 5723 5720 5718 5715 5713 5711 5709 5706 5704 5702 5701 5700 5698 5697 5696 5694 5693 5691 5689 5687 5684 5682 5680 5678 5676 5673 5671 5670 5668 5666 5664 5661 5658 5655 5651 5647 5644 5640 5637 5633 5629 5625 5621 5617 5613 5608 5604 5599 5595 5592 5589 5586 5583 5580 5578 5576 5573 5570 5567 5565 5562 5559 5555 5552 5555 5562 5561 5555 5553 5554 5552 5550 5551 5551 5551 5553 5555 5556 5557 5559 5562
5725 5723 5721 5719 5716 5714 5711 5709 5707 5705 5703 5701 5698 5697 5696 5694 5693 5691 5690 5688 5686 5684 5682 5680 5678 5675 5673 5671 5669 5666 5664 5662 5660 5658 5656 5653 5649 5646 5642 5638 5635 5631 5627 5623 5619 5615 5612 5608 5603 5599 5594 5590 5586 5582 5578 5575 5572 5569 5566 5563 5561 5558 5555 5554 5551 5546 5543 5538 5536 5542 5547 5542 5536 5538 5539 5536 5534 5533 5533 5535 5537 5541 5543 5544 5546
5718 5716 5714 5711 5709 5706 5704 5702 5700 5698 5696 5694 5693 5691 5690 5689 5687 5685 5683 5681 5679 5677 5675 5673 5671 5668 5666 5664 5662 5659 5657 5655 5652 5650 5647 5644 5640 5636 5633 5629 5625 5622 5617 5613 5609 5605 5601 5597 5593 5588 5584 5580 5576 5571 5568 5565 5561 5558 5554 5550 5548 5547 5543 5541 5539 5533 5528 5524 5518 5519 5526 5529 5522 5519 5521 5519 5516 5516 5516 5517 5519 5523 5526 5529 5531